Skip Page Navigation
NASA JPL Caltech
NASA Logo - Jet Propulsion Laboratory + View the NASA Portal
+ Center for Near-Earth Object Studies
JPL Home Earth Solar System Stars & Galaxies Technology
JPL Solar System Dynamics
BODIES ORBITS EPHEMERIDES TOOLS PHYSICAL DATA DISCOVERY FAQ SITE MAP
JPL Small-Body Database Browser
Search: [ help ]  
137032 (1998 UO1)
Classification: Apollo [NEO]          SPK-ID: 2137032
Ephemeris | Orbit Diagram | Orbital Elements | Mission Design | Physical Parameters | Discovery Circumstances | Close-Approach Data ]

[ hide orbit diagram ]

For accurate long-term ephemerides, please instead use our Horizons system.This orbit viewer was implemented using two-body methods, and hence should not be used for determining accurate long-term trajectories (over several years or decades) or planetary encounter circumstances.


[ revert to old Java-based viewer ]

Orbital Elements at Epoch 2459000.5 (2020-May-31.0) TDB
Reference: JPL 232 (heliocentric ecliptic J2000)
 Element Value Uncertainty (1-sigma)   Units 
e .7632665150355521 6.349e-08  
a 1.595632977507469 2.1037e-09 au
q .3777397554895416 1.0125e-07 au
i 25.49793951669693 1.1451e-05 deg
node 358.4537972194303 4.2772e-06 deg
peri 252.480039795266 1.229e-05 deg
M 307.9103316992428 4.8255e-06 deg
tp 2459107.023891405642
(2020-Sep-14.52389141)
1.0072e-05 TDB
period 736.2035919409697
2.02
1.456e-06
3.986e-09
d
yr
n .4889951691907333 9.6706e-10 deg/d
Q 2.813526199525396 3.7094e-09 au
  Orbit Determination Parameters
   # obs. used (total)      1430  
   # delay obs. used      5  
   # Doppler obs. used      0  
   data-arc span      10263 days (28.10 yr)  
   first obs. used      1992-10-20  
   last obs. used      2020-11-25  
   planetary ephem.      DE431  
   SB-pert. ephem.      SB431-N16  
   condition code      0  
   norm. resid. RMS      .36521  
   source      ORB  
   producer      Otto Matic  
   solution date      2020-Nov-26 05:21:35  

Additional Information
 Earth MOID = .058197 au 
 Jupiter MOID = 2.75185 au 
 T_jup = 3.907 
[ show covariance matrix ]

Ephemeris | Orbit Diagram | Orbital Elements | Mission Design | Physical Parameters | Discovery Circumstances | Close-Approach Data ]

Physical Parameter Table
Parameter Symbol Value Units Sigma Reference Notes
absolute magnitude H 16.6   n/a MPO248169  
diameter diameter 1.055 km 0.322 urn:nasa:pds:neowise_diameters_albedos::2.0[neos] (http://adsabs.harvard.edu/abs/2014ApJ...784..110M)  
rotation period rot_per 2.925 h n/a LCDB (Rev. 2019-August); Warner et al., 2009 Result based on less than full coverage, so that the period may be wrong by 30 percent or so.
Published Reference List:
[Pravec, P.; Wolf, M.; Sarounova, L. (2004) http://www.asu.cas.cz/~ppravec/neo.htm]
[Wolters, S.D.; Green, S.F.; McBride, N.; Davies, J.K. (2008) Icarus 193, 535-552.]
[Pravec, P.; Wolf, M.; Sarounova, L. (2014) http://www.asu.cas.cz/~ppravec/neo.htm]
[Warner, B.D. (2015) Minor Planet Bull. 42, 115-127.]
[Warner, B.D. (2017) Minor Planet Bull. 44, 98-107.]
[Skiff, B.A.; McLelland, K.P.; Sanborn, J.J.; Pravec, P.; Koehn, B.W. (2019) Minor Plantet Bull. 46, 238-265.]
geometric albedo albedo 0.183   0.325 urn:nasa:pds:neowise_diameters_albedos::2.0[neos] (http://adsabs.harvard.edu/abs/2014ApJ...784..110M)  

137032 (1998 UO1)          Discovered 1998-Oct-19 by LINEAR at Socorro
Reference: 20061205/Numbers.arcLast Updated: 2006-12-13

[ hide close-approach data ]
Close-Approach Data   ...sorted by Date/Time (TDB)
Date/Time (TDB) Time Uncertainty
(days_HH:MM)
Body Nominal Distance (au) Minimum Distance (au) Maximum Distance (au) V-relative (km/s) V-infinity (km/s) JD (TDB) Time Uncertainty (minutes) Semi-major axis (km) Semi-minor axis (km) range-LOV angle (deg) N-sigma BP Orbit Ref. Reference Modified
1916-Jan-07 06:14 < 00:01 Venus 0.101302028316612 0.101301253933708 0.101302802700045 35.6697032838661 35.6691023108584 2420869.759868303 0.0540435759190523 40.353595421854 6.82787759820708 17.1336779019272 733976.906274428 T 232 CATAB v2.0f-lin.ifort 2020-Nov-26 05:21:38 2020-Nov-26 05:21
1946-Jan-22 20:18 < 00:01 Earth 0.489840952613455 0.48983963550252 0.489842269727258 41.0667994221545 41.0666669675351 2431843.345780855 0.0451149724218449 89.1808132051072 13.340305385485 -43.1703256138634 3694882.18976372 T 232 CATAB v2.0f-lin.ifort 2020-Nov-26 05:21:38 2020-Nov-26 05:21
1948-Jan-27 21:45 < 00:01 Earth 0.422771698916365 0.422770511149255 0.422772886687344 38.4543651497519 38.4542012562522 2432578.406221943 0.0459920129425906 88.5205580980702 14.9441255415639 -48.9376816453031 3131036.75740003 T 232 CATAB v2.0f-lin.ifort 2020-Nov-26 05:21:38 2020-Nov-26 05:21
1950-Feb-01 01:59 < 00:01 Earth 0.362012976999354 0.362011982206331 0.3620139717975 35.8942970858388 35.8940920338408 2433313.582765859 0.0476525634858568 87.5236218575259 16.5877030233835 -57.0431012310119 2679986.14314959 T 232 CATAB v2.0f-lin.ifort 2020-Nov-26 05:21:38 2020-Nov-26 05:21
1952-Feb-06 04:26 < 00:01 Earth 0.313603481268014 0.313602755093079 0.313604207448726 33.4942854378243 33.4940317717376 2434048.684938864 0.0496209450828547 85.7320531323521 18.2523916358557 -68.0773147104737 2325844.1922067 T 232 CATAB v2.0f-lin.ifort 2020-Nov-26 05:21:38 2020-Nov-26 05:21
1954-Feb-10 18:30 < 00:01 Earth 0.278291388591337 0.278290946898068 0.278291830286124 30.9964707758692 30.9961618868252 2434784.271166175 0.0547854713465299 83.988902853232 20.1867630658336 -83.7967238199515 1997602.33394174 T 232 CATAB v2.0f-lin.ifort 2020-Nov-26 05:21:38 2020-Nov-26 05:21
1956-Feb-16 05:28 < 00:01 Earth 0.268716054544628 0.268715529035302 0.268716580056627 28.8591373064468 28.8587937184501 2435519.727576199 0.0622647380346063 81.9033933889356 21.9891911398161 79.5910275455841 1758032.84270806 T 232 CATAB v2.0f-lin.ifort 2020-Nov-26 05:21:38 2020-Nov-26 05:21
1958-Feb-21 07:02 < 00:01 Earth 0.283638068390199 0.283637221887454 0.283638914897409 26.8126385030986 26.8122881458379 2436255.793006131 0.0765939857504639 80.2629738601756 23.955377745066 63.0180555411738 1562797.77570569 T 232 CATAB v2.0f-lin.ifort 2020-Nov-26 05:21:38 2020-Nov-26 05:21
1960-Feb-28 08:52 < 00:01 Earth 0.320343597316251 0.320342512473652 0.320344682162128 24.9960983348156 24.9957655779883 2436992.869762562 0.1008291460296 79.386083242787 25.7581943262368 50.6902251573728 1451013.81339885 T 232 CATAB v2.0f-lin.ifort 2020-Nov-26 05:21:38 2020-Nov-26 05:21
1962-Mar-07 17:07 < 00:01 Earth 0.369832426749269 0.369831260237907 0.369833593263573 23.7653364755171 23.7650333195144 2437731.212918041 0.135060175959836 82.4098068102074 26.2498274670565 48.3552417457548 1541610.76648903 T 232 CATAB v2.0f-lin.ifort 2020-Nov-26 05:21:38 2020-Nov-26 05:21
1964-Mar-16 07:13 < 00:01 Earth 0.423407229110469 0.423406112754035 0.42340834547174 23.5622215481272 23.561954468775 2438470.801010604 0.162539356223461 96.6750400400187 24.0390604913628 57.5739117215993 1960009.71058239 T 232 CATAB v2.0f-lin.ifort 2020-Nov-26 05:21:38 2020-Nov-26 05:21
1966-Mar-27 15:47 < 00:01 Earth 0.480447703868886 0.480446731380904 0.480448676363914 24.6268381105554 24.6266129151296 2439212.157636260 0.16146819430736 112.649618106921 20.8761236202661 66.7091181190756 2579190.71068541 T 232 CATAB v2.0f-lin.ifort 2020-Nov-26 05:21:38 2020-Nov-26 05:21
1972-Apr-10 21:53 < 00:01 Venus 0.0835799459420936 0.083579454360863 0.0835804375324365 33.4347416420612 33.4339645473825 2441418.411663043 0.0437860641837342 63.8459952687465 16.5377170998517 -72.937380251151 715710.407664716 T 232 CATAB v2.0f-lin.ifort 2020-Nov-26 05:21:38 2020-Nov-26 05:21
1974-Jun-10 19:52 < 00:01 Venus 0.0751389304515169 0.0751381182390017 0.0751397426643653 28.4136831646848 28.4126660166209 2442209.327927490 0.0402470070266386 41.2749729840759 4.53800966822037 -11.1745404825927 553989.899059949 T 232 CATAB v2.0f-lin.ifort 2020-Nov-26 05:21:38 2020-Nov-26 05:21
1994-Jun-09 02:14 < 00:01 Venus 0.0958085042120836 0.0958075515101075 0.0958094569173601 29.1496389325079 29.148861366085 2449512.593055887 0.0489894460988917 56.1949858249651 16.9749263187136 34.0760881234718 517389.074695997 T 232 CATAB v2.0f-lin.ifort 2020-Nov-26 05:21:38 2020-Nov-26 05:21
1996-Aug-07 03:30 < 00:01 Venus 0.0355038012463507 0.0355032077530441 0.0355043947435686 32.8061636320836 32.8042991810309 2450302.646002726 0.0353875786685391 35.1870998184833 6.38871317756305 33.3709657157105 471720.312410563 T 232 CATAB v2.0f-lin.ifort 2020-Nov-26 05:21:38 2020-Nov-26 05:21
2000-Sep-09 01:46 < 00:01 Earth 0.408743637466724 0.408743248883204 0.408744026050244 18.5888854105648 18.5885347296769 2451796.573527213 0.0284400950422252 19.3938767222536 7.21152476022584 2.55388722624921 3329227.83735784 T 232 CATAB v2.0f-lin.ifort 2020-Nov-26 05:21:38 2020-Nov-26 05:21
2002-Sep-14 11:23 < 00:01 Earth 0.309091023298539 0.309090721931679 0.309091324665416 20.9450495600437 20.9446379851838 2452531.974264751 0.0165756580054937 15.2196440016707 4.42599831816292 9.51608295874945 3431199.68903053 T 232 CATAB v2.0f-lin.ifort 2020-Nov-26 05:21:38 2020-Nov-26 05:21
2004-Sep-18 08:02 < 00:01 Earth 0.217678970141388 0.217678760977688 0.217679179305113 23.2622799813754 23.2617537841956 2453266.834762667 0.010817340747691 10.9075963219759 2.6114243594517 17.5405325112486 4528075.21762565 T 232 CATAB v2.0f-lin.ifort 2020-Nov-26 05:21:38 2020-Nov-26 05:21
2006-Sep-23 01:47 < 00:01 Earth 0.130836374601458 0.130836264253042 0.130836484949911 25.6529773700377 25.6521834938103 2454001.573980470 0.00594811027288686 6.5515189302039 1.23898951635592 33.5535873839939 8539012.23720593 T 232 CATAB v2.0f-lin.ifort 2020-Nov-26 05:21:38 2020-Nov-26 05:21
2008-Sep-26 17:09 < 00:01 Earth 0.063048948190766 0.063048941120999 0.0630489552605366 28.0912202514707 28.0897158091717 2454736.214536508 0.00266668423691099 2.57620443240529 0.346520181232298 -88.5342350374239 33620804.1582067 T 232 CATAB v2.0f-lin.ifort 2020-Nov-26 05:21:38 2020-Nov-26 05:21
